Location: Unspecified
(0.0000°N, 0.0000°E)
Time: 09:05:55
(UTC+00:00)

USA 184 - Visible Passes

Search period start: 05 June 2023 00:00
Search period end: 15 June 2023 00:00
Orbit: 1078 x 39274 km, 63.5° (Epoch: 28 February)

Date Brightness Start Highest point End Pass type
(mag) Time Alt. Az. Time Alt. Az. Time Alt. Az.
05 Jun 5.6 09:28:24 10° SW 20:38:34 86° WSW 20:50:54 41° SSE visible
06 Jun 5.6 09:23:53 10° SW 20:34:02 87° WSW 20:46:49 39° SSE visible
07 Jun 5.6 09:19:21 10° SW 20:29:31 87° WSW 20:42:42 36° SSE visible
08 Jun 5.7 09:14:50 10° SW 20:24:59 87° WSW 20:38:36 34° SSE visible
09 Jun 5.7 09:10:19 10° SW 20:20:28 87° WSW 20:34:29 32° SSE visible
10 Jun 5.7 09:05:47 10° SW 20:15:57 87° WSW 20:30:22 30° SSE visible
11 Jun 5.7 09:01:15 10° SW 20:11:25 87° WSW 20:26:14 28° SSE visible
12 Jun 5.7 08:56:44 10° SW 20:06:54 87° WSW 20:22:06 26° SSE visible
13 Jun 5.7 08:52:12 10° SW 20:02:22 87° WSW 20:17:58 24° SSE visible
14 Jun 5.8 08:47:41 10° SW 19:57:50 87° WSW 20:13:49 22° SSE visible
